When you browse on this site, cookies collect data to enhance your experience and personalize the content and advertising you see.
Visit our Privacy Policy to learn more. By continuing to use the site, you agree to this use of cookies and data.
  • In Austria
  • List of Countries
  • For 7 days
  • Water Temperature
  • Weather Map
  • News
  • Weather Widgets
  • user-avatar
    Login

    Hourly Weather Troy

    Today, 19 September, Thursday

    Time Temperature Precipitation Wind Pressure Humidity
    00:00 +19°C° 0 mm 3 mps 746 mmHg 68%
    01:00 +19°C° 0 mm 3 mps 746 mmHg 65%
    02:00 +19°C° 0 mm 3 mps 746 mmHg 62%
    03:00 +19°C° 0 mm 3 mps 746 mmHg 59%
    04:00 +19°C° 0 mm 3 mps 746 mmHg 59%
    05:00 +19°C° 0 mm 3 mps 746 mmHg 60%
    06:00 +18°C° 0 mm 3 mps 746 mmHg 60%
    07:00 +19°C° 0 mm 3 mps 746 mmHg 59%
    08:00 +21°C° 0 mm 3 mps 746 mmHg 58%
    09:00 +22°C° 0 mm 4 mps 746 mmHg 56%
    10:00 +23°C° 0 mm 4 mps 746 mmHg 55%
    11:00 +25°C° 0 mm 3 mps 746 mmHg 53%
    12:00 +27°C° 0 mm 3 mps 746 mmHg 52%
    13:00 +27°C° 0 mm 3 mps 746 mmHg 53%
    14:00 +27°C° 0 mm 4 mps 745 mmHg 53%
    15:00 +27°C° 0 mm 4 mps 745 mmHg 54%
    16:00 +25°C° 0 mm 3 mps 745 mmHg 60%
    17:00 +24°C° 0 mm 3 mps 745 mmHg 65%
    18:00 +22°C° 0 mm 3 mps 745 mmHg 71%
    19:00 +21°C° 0 mm 3 mps 745 mmHg 73%
    20:00 +21°C° 0 mm 2 mps 745 mmHg 75%
    21:00 +20°C° 0 mm 2 mps 745 mmHg 78%
    22:00 +20°C° 0 mm 2 mps 745 mmHg 80%
    23:00 +20°C° 0 mm 2 mps 745 mmHg 82%

    Tomorrow, 20 September, Friday

    Time Temperature Precipitation Wind Pressure Humidity
    00:00 +20°C° 0 mm 2 mps 745 mmHg 84%
    01:00 +20°C° 0 mm 2 mps 745 mmHg 83%
    02:00 +19°C° 0 mm 2 mps 745 mmHg 82%
    03:00 +19°C° 0 mm 2 mps 745 mmHg 81%
    04:00 +19°C° 0 mm 2 mps 745 mmHg 79%
    05:00 +20°C° 0 mm 1 mps 746 mmHg 78%
    06:00 +20°C° 0 mm 1 mps 746 mmHg 77%
    07:00 +21°C° 0 mm 1 mps 746 mmHg 71%
    08:00 +23°C° 0 mm 1 mps 746 mmHg 65%
    09:00 +25°C° 0 mm 2 mps 746 mmHg 60%
    10:00 +26°C° 0 mm 2 mps 746 mmHg 58%
    11:00 +27°C° 0 mm 2 mps 746 mmHg 56%
    12:00 +29°C° 0 mm 3 mps 746 mmHg 54%
    13:00 +28°C° 0 mm 3 mps 746 mmHg 56%
    14:00 +28°C° 0 mm 3 mps 745 mmHg 57%
    15:00 +28°C° 0 mm 3 mps 745 mmHg 59%
    16:00 +27°C° 0 mm 3 mps 745 mmHg 65%
    17:00 +26°C° 0 mm 3 mps 745 mmHg 71%
    18:00 +25°C° 0 mm 2 mps 745 mmHg 78%
    19:00 +24°C° 0 mm 2 mps 745 mmHg 80%
    20:00 +24°C° 0 mm 2 mps 745 mmHg 83%
    21:00 +23°C° 0 mm 2 mps 746 mmHg 85%
    22:00 +23°C° 0 mm 2 mps 745 mmHg 86%
    23:00 +23°C° 0 mm 2 mps 745 mmHg 88%

    Day after tomorrow, 21 September, Saturday

    Time Temperature Precipitation Wind Pressure Humidity
    00:00 +22°C° 0 mm 1 mps 745 mmHg 89%
    01:00 +21°C° 0 mm 2 mps 745 mmHg 89%
    02:00 +21°C° 0 mm 2 mps 745 mmHg 90%
    03:00 +21°C° 0 mm 2 mps 745 mmHg 91%
    04:00 +21°C° 0 mm 2 mps 745 mmHg 91%
    05:00 +21°C° 0 mm 3 mps 746 mmHg 91%
    06:00 +21°C° 0 mm 3 mps 746 mmHg 91%
    07:00 +22°C° 0 mm 3 mps 746 mmHg 83%
    08:00 +25°C° 0 mm 3 mps 746 mmHg 76%
    09:00 +26°C° 0 mm 4 mps 746 mmHg 69%
    10:00 +27°C° 0.1 mm 4 mps 746 mmHg 65%
    11:00 +28°C° 0.1 mm 5 mps 746 mmHg 61%
    12:00 +29°C° 0.1 mm 5 mps 745 mmHg 58%
    13:00 +29°C° 0.1 mm 5 mps 745 mmHg 57%
    14:00 +29°C° 0.1 mm 5 mps 745 mmHg 56%
    15:00 +29°C° 0.1 mm 5 mps 744 mmHg 55%
    16:00 +28°C° 0 mm 5 mps 744 mmHg 57%
    17:00 +27°C° 0 mm 5 mps 744 mmHg 59%
    18:00 +26°C° 0 mm 4 mps 744 mmHg 62%
    19:00 +25°C° 0 mm 4 mps 744 mmHg 64%
    20:00 +25°C° 0 mm 4 mps 744 mmHg 66%
    21:00 +23°C° 0 mm 4 mps 744 mmHg 68%
    22:00 +23°C° 0 mm 5 mps 744 mmHg 68%
    23:00 +23°C° 0 mm 5 mps 743 mmHg 67%

    22 September, Sunday

    Time Temperature Precipitation Wind Pressure Humidity
    00:00 +23°C° 0 mm 5 mps 743 mmHg 67%
    01:00 +22°C° 0 mm 5 mps 743 mmHg 67%
    02:00 +22°C° 0 mm 5 mps 743 mmHg 66%
    03:00 +22°C° 0 mm 5 mps 742 mmHg 66%
    04:00 +22°C° 0 mm 5 mps 742 mmHg 66%
    05:00 +22°C° 0 mm 6 mps 742 mmHg 66%
    06:00 +22°C° 0 mm 6 mps 741 mmHg 66%
    07:00 +23°C° 0 mm 6 mps 741 mmHg 65%
    08:00 +23°C° 0 mm 7 mps 741 mmHg 65%
    09:00 +24°C° 0 mm 7 mps 741 mmHg 64%
    10:00 +26°C° 0 mm 8 mps 740 mmHg 61%
    11:00 +27°C° 0 mm 8 mps 739 mmHg 59%
    12:00 +28°C° 0 mm 9 mps 738 mmHg 56%
    13:00 +27°C° 0.1 mm 9 mps 738 mmHg 61%
    14:00 +26°C° 0.1 mm 9 mps 738 mmHg 67%
    15:00 +24°C° 0.1 mm 9 mps 737 mmHg 72%
    16:00 +23°C° 0.1 mm 8 mps 738 mmHg 73%
    17:00 +22°C° 0.1 mm 7 mps 738 mmHg 75%
    18:00 +21°C° 0.1 mm 6 mps 739 mmHg 77%
    19:00 +21°C° 0 mm 5 mps 739 mmHg 78%
    20:00 +20°C° 0 mm 5 mps 739 mmHg 80%
    21:00 +20°C° 0 mm 4 mps 739 mmHg 82%
    22:00 +19°C° 0 mm 4 mps 739 mmHg 82%
    23:00 +19°C° 0 mm 3 mps 739 mmHg 82%

    23 September, Monday

    Time Temperature Precipitation Wind Pressure Humidity
    00:00 +18°C° 0 mm 3 mps 739 mmHg 81%
    01:00 +18°C° 0 mm 3 mps 739 mmHg 82%
    02:00 +18°C° 0 mm 3 mps 739 mmHg 82%
    03:00 +17°C° 0 mm 2 mps 739 mmHg 82%
    04:00 +17°C° 0 mm 2 mps 740 mmHg 81%
    05:00 +17°C° 0 mm 2 mps 740 mmHg 80%
    06:00 +17°C° 0 mm 2 mps 740 mmHg 79%
    07:00 +19°C° 0 mm 2 mps 740 mmHg 72%
    08:00 +21°C° 0 mm 3 mps 741 mmHg 64%
    09:00 +22°C° 0 mm 3 mps 741 mmHg 56%
    10:00 +24°C° 0.1 mm 3 mps 741 mmHg 53%
    11:00 +25°C° 0.1 mm 3 mps 741 mmHg 51%
    12:00 +26°C° 0.1 mm 4 mps 741 mmHg 49%
    13:00 +25°C° 0.2 mm 4 mps 740 mmHg 53%
    14:00 +23°C° 0.2 mm 4 mps 740 mmHg 57%
    15:00 +22°C° 0.2 mm 3 mps 740 mmHg 61%
    16:00 +22°C° 0 mm 3 mps 740 mmHg 62%
    17:00 +21°C° 0 mm 3 mps 740 mmHg 63%
    18:00 +20°C° 0 mm 3 mps 741 mmHg 64%
    19:00 +19°C° 0 mm 3 mps 741 mmHg 66%
    20:00 +18°C° 0 mm 4 mps 742 mmHg 68%
    21:00 +17°C° 0 mm 4 mps 742 mmHg 70%
    22:00 +15°C° 0 mm 4 mps 742 mmHg 73%
    23:00 +15°C° 0 mm 4 mps 742 mmHg 76%

    24 September, Tuesday

    Time Temperature Precipitation Wind Pressure Humidity
    00:00 +14°C° 0 mm 3 mps 742 mmHg 78%
    01:00 +13°C° 0 mm 3 mps 742 mmHg 79%
    02:00 +13°C° 0 mm 3 mps 742 mmHg 79%
    03:00 +12°C° 0 mm 3 mps 743 mmHg 80%
    04:00 +13°C° 0 mm 2 mps 743 mmHg 80%
    05:00 +13°C° 0 mm 2 mps 743 mmHg 79%
    06:00 +13°C° 0 mm 2 mps 743 mmHg 79%
    07:00 +14°C° 0 mm 2 mps 743 mmHg 72%
    08:00 +16°C° 0 mm 2 mps 743 mmHg 64%
    09:00 +19°C° 0 mm 1 mps 743 mmHg 57%
    10:00 +20°C° 0 mm 1 mps 743 mmHg 52%
    11:00 +21°C° 0 mm 1 mps 743 mmHg 47%
    12:00 +22°C° 0 mm 1 mps 743 mmHg 42%
    13:00 +22°C° 0 mm 1 mps 742 mmHg 44%
    14:00 +22°C° 0 mm 1 mps 742 mmHg 45%
    15:00 +21°C° 0 mm 2 mps 741 mmHg 46%
    16:00 +20°C° 0 mm 2 mps 741 mmHg 50%
    17:00 +19°C° 0 mm 2 mps 741 mmHg 53%
    18:00 +19°C° 0 mm 1 mps 741 mmHg 56%
    19:00 +17°C° 0 mm 2 mps 741 mmHg 58%
    20:00 +17°C° 0 mm 2 mps 740 mmHg 59%
    21:00 +17°C° 0 mm 2 mps 740 mmHg 60%
    22:00 +18°C° 0 mm 1 mps 740 mmHg 62%
    23:00 +18°C° 0 mm 1 mps 739 mmHg 63%
    Show more